When you browse on this site, cookies collect data to enhance your experience and personalize the content and advertising you see.
Visit our Privacy Policy to learn more. By continuing to use the site, you agree to this use of cookies and data.
  • In Portugal
  • List of Countries
  • For 7 days
  • Water Temperature
  • Weather Map
  • Weather Widgets
  • user-avatar
    Login

    Hourly Weather Larisa

    Today, 2 June, Tuesday

    Time Temperature Precipitation Wind Pressure Humidity
    00:00 +16°C° 0.1 mm 1 mps 750 mmHg 75%
    01:00 +16°C° 0.1 mm 1 mps 750 mmHg 76%
    02:00 +16°C° 0 mm 1 mps 750 mmHg 77%
    03:00 +15°C° 0 mm 1 mps 750 mmHg 78%
    04:00 +15°C° 0 mm 1 mps 750 mmHg 79%
    05:00 +16°C° 0 mm 1 mps 750 mmHg 74%
    06:00 +19°C° 0 mm 1 mps 750 mmHg 70%
    07:00 +20°C° 0 mm 1 mps 750 mmHg 65%
    08:00 +21°C° 0 mm 1 mps 750 mmHg 60%
    09:00 +22°C° 0 mm 1 mps 750 mmHg 54%
    10:00 +24°C° 0 mm 1 mps 750 mmHg 49%
    11:00 +24°C° 0.1 mm 1 mps 750 mmHg 46%
    12:00 +25°C° 0.1 mm 1 mps 749 mmHg 44%
    13:00 +26°C° 0.1 mm 2 mps 749 mmHg 41%
    14:00 +26°C° 0 mm 2 mps 749 mmHg 42%
    15:00 +26°C° 0 mm 2 mps 748 mmHg 42%
    16:00 +26°C° 0 mm 2 mps 748 mmHg 43%
    17:00 +24°C° 0.1 mm 2 mps 748 mmHg 50%
    18:00 +23°C° 0.1 mm 1 mps 748 mmHg 57%
    19:00 +21°C° 0.1 mm 1 mps 748 mmHg 64%
    20:00 +20°C° 0.7 mm 1 mps 748 mmHg 68%
    21:00 +19°C° 0.7 mm 1 mps 749 mmHg 73%
    22:00 +18°C° 0.7 mm 1 mps 749 mmHg 78%
    23:00 +18°C° 0.2 mm 1 mps 749 mmHg 78%

    Tomorrow, 3 June, Wednesday

    Time Temperature Precipitation Wind Pressure Humidity
    00:00 +18°C° 0.2 mm 1 mps 749 mmHg 79%
    01:00 +16°C° 0.2 mm 1 mps 749 mmHg 80%
    02:00 +16°C° 0 mm 1 mps 749 mmHg 80%
    03:00 +16°C° 0 mm 1 mps 749 mmHg 80%
    04:00 +14°C° 0 mm 0 mps 748 mmHg 80%
    05:00 +16°C° 0 mm 0 mps 749 mmHg 76%
    06:00 +17°C° 0 mm 0 mps 749 mmHg 72%
    07:00 +18°C° 0 mm 0 mps 749 mmHg 68%
    08:00 +19°C° 0.1 mm 0 mps 749 mmHg 64%
    09:00 +23°C° 0.1 mm 1 mps 749 mmHg 60%
    10:00 +24°C° 0.1 mm 1 mps 749 mmHg 56%
    11:00 +24°C° 0.2 mm 1 mps 749 mmHg 53%
    12:00 +25°C° 0.2 mm 1 mps 748 mmHg 51%
    13:00 +25°C° 0.2 mm 2 mps 748 mmHg 48%
    14:00 +25°C° 0.2 mm 2 mps 748 mmHg 50%
    15:00 +25°C° 0.2 mm 2 mps 748 mmHg 51%
    16:00 +24°C° 0.2 mm 2 mps 748 mmHg 53%
    17:00 +23°C° 0.2 mm 2 mps 749 mmHg 58%
    18:00 +21°C° 0.2 mm 2 mps 749 mmHg 63%
    19:00 +20°C° 0.2 mm 1 mps 749 mmHg 69%
    20:00 +20°C° 0 mm 1 mps 749 mmHg 69%
    21:00 +19°C° 0 mm 1 mps 750 mmHg 70%
    22:00 +17°C° 0 mm 0 mps 750 mmHg 71%
    23:00 +16°C° 0 mm 0 mps 750 mmHg 72%

    Day after tomorrow, 4 June, Thursday

    Time Temperature Precipitation Wind Pressure Humidity
    00:00 +18°C° 0 mm 1 mps 750 mmHg 73%
    01:00 +18°C° 0 mm 1 mps 750 mmHg 74%
    02:00 +16°C° 0 mm 1 mps 750 mmHg 75%
    03:00 +16°C° 0 mm 1 mps 750 mmHg 77%
    04:00 +16°C° 0 mm 1 mps 750 mmHg 79%
    05:00 +18°C° 0 mm 1 mps 751 mmHg 75%
    06:00 +20°C° 0 mm 1 mps 751 mmHg 71%
    07:00 +21°C° 0 mm 1 mps 751 mmHg 67%
    08:00 +23°C° 0 mm 1 mps 751 mmHg 61%
    09:00 +24°C° 0 mm 1 mps 751 mmHg 55%
    10:00 +26°C° 0 mm 1 mps 751 mmHg 50%
    11:00 +27°C° 0 mm 1 mps 751 mmHg 46%
    12:00 +28°C° 0 mm 1 mps 751 mmHg 41%
    13:00 +29°C° 0 mm 1 mps 751 mmHg 37%
    14:00 +29°C° 0 mm 2 mps 751 mmHg 38%
    15:00 +29°C° 0 mm 2 mps 751 mmHg 38%
    16:00 +29°C° 0 mm 2 mps 751 mmHg 39%
    17:00 +27°C° 0 mm 2 mps 751 mmHg 46%
    18:00 +26°C° 0 mm 2 mps 751 mmHg 54%
    19:00 +24°C° 0 mm 2 mps 752 mmHg 61%
    20:00 +23°C° 0 mm 1 mps 752 mmHg 61%
    21:00 +22°C° 0 mm 1 mps 752 mmHg 62%
    22:00 +21°C° 0 mm 1 mps 753 mmHg 62%
    23:00 +21°C° 0 mm 1 mps 752 mmHg 64%

    5 June, Friday

    Time Temperature Precipitation Wind Pressure Humidity
    00:00 +20°C° 0 mm 1 mps 752 mmHg 65%
    01:00 +20°C° 0 mm 1 mps 752 mmHg 67%
    02:00 +19°C° 0 mm 1 mps 752 mmHg 68%
    03:00 +19°C° 0 mm 1 mps 752 mmHg 69%
    04:00 +18°C° 0 mm 1 mps 752 mmHg 70%
    05:00 +18°C° 0 mm 0 mps 752 mmHg 66%
    06:00 +19°C° 0 mm 0 mps 752 mmHg 62%
    07:00 +21°C° 0 mm 0 mps 752 mmHg 57%
    08:00 +24°C° 0 mm 1 mps 752 mmHg 53%
    09:00 +25°C° 0 mm 1 mps 752 mmHg 48%
    10:00 +27°C° 0 mm 1 mps 752 mmHg 44%
    11:00 +28°C° 0 mm 1 mps 751 mmHg 41%
    12:00 +29°C° 0 mm 1 mps 751 mmHg 39%
    13:00 +29°C° 0 mm 2 mps 751 mmHg 37%
    14:00 +29°C° 0 mm 2 mps 750 mmHg 39%
    15:00 +29°C° 0 mm 2 mps 750 mmHg 42%
    16:00 +28°C° 0 mm 2 mps 750 mmHg 45%
    17:00 +27°C° 0 mm 2 mps 749 mmHg 49%
    18:00 +26°C° 0 mm 2 mps 749 mmHg 53%
    19:00 +25°C° 0 mm 1 mps 749 mmHg 57%
    20:00 +24°C° 0 mm 1 mps 749 mmHg 59%
    21:00 +23°C° 0 mm 1 mps 749 mmHg 61%
    22:00 +23°C° 0 mm 1 mps 750 mmHg 63%
    23:00 +22°C° 0 mm 1 mps 749 mmHg 64%

    6 June, Saturday

    Time Temperature Precipitation Wind Pressure Humidity
    00:00 +21°C° 0 mm 1 mps 749 mmHg 66%
    01:00 +21°C° 0 mm 1 mps 749 mmHg 68%
    02:00 +20°C° 0 mm 1 mps 749 mmHg 69%
    03:00 +20°C° 0 mm 1 mps 749 mmHg 70%
    04:00 +20°C° 0 mm 1 mps 749 mmHg 70%
    05:00 +21°C° 0 mm 1 mps 750 mmHg 66%
    06:00 +22°C° 0 mm 1 mps 750 mmHg 61%
    07:00 +24°C° 0 mm 1 mps 750 mmHg 56%
    08:00 +25°C° 0 mm 1 mps 750 mmHg 53%
    09:00 +27°C° 0 mm 1 mps 750 mmHg 49%
    10:00 +28°C° 0 mm 2 mps 751 mmHg 45%
    11:00 +29°C° 0 mm 1 mps 750 mmHg 43%
    12:00 +30°C° 0 mm 1 mps 750 mmHg 41%
    13:00 +31°C° 0 mm 1 mps 750 mmHg 39%
    14:00 +31°C° 0 mm 1 mps 750 mmHg 38%
    15:00 +31°C° 0 mm 1 mps 750 mmHg 38%
    16:00 +31°C° 0 mm 1 mps 750 mmHg 37%
    17:00 +29°C° 0 mm 1 mps 750 mmHg 45%
    18:00 +27°C° 0 mm 2 mps 750 mmHg 53%
    19:00 +25°C° 0 mm 2 mps 750 mmHg 61%
    20:00 +24°C° 0 mm 2 mps 751 mmHg 62%
    21:00 +24°C° 0 mm 1 mps 751 mmHg 63%
    22:00 +23°C° 0 mm 1 mps 752 mmHg 63%
    23:00 +23°C° 0 mm 1 mps 752 mmHg 64%

    7 June, Sunday

    Time Temperature Precipitation Wind Pressure Humidity
    00:00 +20°C° 0 mm 0 mps 752 mmHg 65%
    01:00 +20°C° 0 mm 0 mps 752 mmHg 66%
    02:00 +20°C° 0 mm 0 mps 751 mmHg 67%
    03:00 +19°C° 0 mm 0 mps 751 mmHg 68%
    04:00 +19°C° 0 mm 0 mps 751 mmHg 69%
    05:00 +20°C° 0 mm 0 mps 752 mmHg 66%
    06:00 +22°C° 0 mm 0 mps 752 mmHg 62%
    07:00 +25°C° 0 mm 1 mps 752 mmHg 58%
    08:00 +27°C° 0 mm 1 mps 752 mmHg 54%
    09:00 +28°C° 0 mm 1 mps 752 mmHg 50%
    10:00 +29°C° 0 mm 2 mps 752 mmHg 46%
    11:00 +30°C° 0 mm 2 mps 752 mmHg 44%
    12:00 +30°C° 0 mm 3 mps 752 mmHg 42%
    13:00 +31°C° 0 mm 3 mps 752 mmHg 40%
    14:00 +31°C° 0 mm 3 mps 752 mmHg 41%
    15:00 +31°C° 0 mm 3 mps 751 mmHg 42%
    16:00 +30°C° 0 mm 4 mps 751 mmHg 43%
    17:00 +29°C° 0 mm 3 mps 751 mmHg 49%
    18:00 +27°C° 0 mm 2 mps 752 mmHg 54%
    19:00 +25°C° 0 mm 1 mps 752 mmHg 60%
    20:00 +25°C° 0 mm 1 mps 752 mmHg 61%
    21:00 +24°C° 0 mm 1 mps 752 mmHg 63%
    22:00 +23°C° 0 mm 1 mps 753 mmHg 64%
    23:00 +21°C° 0 mm 0 mps 752 mmHg 65%
    Show more